Regional Weather Roundup
Issued by NWS

Home | Current Version | Previous Version | Graphics & Text | Print | Product List | Glossary Off
Versions: 1 2 3 4 5 6 7 8 9 10 11 12 13 14 15 16 17 18 19 20 21 22 23 24 25 26 27 28 29 30 31 32 33 34 35 36 37 38 39 40 41 42 43 44 45 46 47 48 49 50

000
ASUS43 KMPX 292201
RWRMN
WEATHER ROUNDUP FOR MINNESOTA
NATIONAL WEATHER SERVICE TWIN CITIES/CHANHASSEN MN
500 PM CDT FRI MAY 29 2015


NOTE: "FAIR" INDICATES FEW OR NO CLOUDS BELOW 12,000 FEET WITH NO
SIGNIFICANT WEATHER AND/OR OBSTRUCTIONS TO VISIBILITY. N/A MEANS
CURRENT SKY AND/OR WEATHER CONDITIONS ARE NOT AVAILABLE.

MNZ060>063-068>070-292300-
   Twin Cities Metro

CITY           SKY/WX    TMP DP  RH WIND       PRES   REMARKS
TWIN CITIES    LGT RAIN  65  62  90 N13       29.90F
ST PAUL        RAIN      65  63  93 N10       29.91R FOG
CRYSTAL        LGT RAIN  66  62  87 N10       29.90S
BLAINE         LGT RAIN  66  64  94 N12       29.91S
LAKEVILLE      CLOUDY    64  63  94 N10       29.90S
EDEN PRAIRIE   RAIN      65  62  90 N9        29.90R FOG
SOUTH ST PAUL  HVY RAIN  65  63  93 N8        29.90S
LAKE ELMO      LGT RAIN  64  61  88 N6        29.92S
$$
MNZ001>005-007-008-013>017-022>024-027-028-292300-
   Northwest Minnesota

CITY           SKY/WX    TMP DP  RH WIND       PRES   REMARKS
BEMIDJI        PTSUNNY   56  42  58 N14G22    30.09S
HALLOCK        SUNNY     54  34  47 N23G31    30.20R
ROSEAU         SUNNY     54  39  58 N20G25    30.15S
WARROAD        SUNNY     54  37  54 NW15G22   30.15R
THIEF RVR FALL SUNNY     54  37  54 N18       30.15S
CROOKSTON      MOSUNNY   55  39  54 N20G31    30.17R
FOSSTON        PTSUNNY   54  45  71 N20       30.13R
DETROIT LAKES  PTSUNNY   52  41  66 N10G29    30.11S
MOORHEAD       MOSUNNY   54  43  66 N23G29    30.14F
PARK RAPIDS    PTSUNNY   55  40  56 N16       30.07R
MAHNOMEN       CLOUDY    51  43  72 N20G29    30.12R
$$
MNZ006-009>011-018-025>026-292300-
   North Central Minnesota

CITY           SKY/WX    TMP DP  RH WIND       PRES   REMARKS
BAUDETTE       MOSUNNY   53  40  61 N18       30.10F
FLAG ISLAND    MOSUNNY   52  37  58 N22G28    30.13R
INTL FALLS     CLOUDY    51  41  68 N12       30.07R
WASKISH        PTSUNNY   55  43  62 N9G23     30.09S
BIG FORK       PTSUNNY   57  43  58 N5        30.05R
LONGVILLE      CLOUDY    54  45  71 NW7       30.05R
GRAND RAPIDS   CLOUDY    54  43  66 N12G20    30.04R
CRANE LAKE     CLOUDY    50  45  81 NW8       30.05R
ORR            CLOUDY    54  43  66 NW8       30.01S
COOK           CLOUDY    52  45  76 N6G17     30.04R
WALKER         CLOUDY    53  41  65 N12       30.07R
$$
MNZ012-019>021-037-292300-
   Northeast Minnesota

CITY           SKY/WX    TMP DP  RH WIND       PRES   REMARKS
DULUTH         CLOUDY    56  51  84 NW17G26   29.96R
HIBBING        CLOUDY    54  46  74 N16G24    30.02R
EVELETH        CLOUDY    52  45  76 N10G23    30.03R
DULUTH HARBOR  CLOUDY    59  54  82 N10       29.97R
TWO HARBORS    CLOUDY    63  55  77 N8G18     29.94R
SILVER BAY     CLOUDY    61  54  77 NW8       29.93R
GRAND MARAIS     N/A     63  51  65 NE8       29.89R
G MARAIS ARPRT CLOUDY    57  48  72 NW12G22   29.92S
$$
MNZ029>031-032-039>041-046>048-054>057-064-292300-
   West Central Minnesota

CITY           SKY/WX    TMP DP  RH WIND       PRES   REMARKS
FERGUS FALLS   PTSUNNY   52  43  71 N14G25    30.10S
WHEATON        CLOUDY    46  41  81 NW21G31   30.13S
MORRIS         CLOUDY    52  48  87 N18G28    30.05S
ALEXANDRIA     CLOUDY    53  46  77 N15G22    30.05S
ELBOW LAKE     CLOUDY    51  44  78 N20G26    30.07S
WADENA         CLOUDY    54  45  71 N14G21    30.06R
GLENWOOD       CLOUDY    52  48  87 N18       30.03S
APPLETON       DRIZZLE   52  46  82 N22G28    30.05S
BENSON         DRIZZLE   54  46  76 N17G28    30.04R
ORTONVILLE     CLOUDY    48  43  81 N25G36    30.08S
MADISON        LGT RAIN  48  45  87 N26       30.06R
WILLMAR        LGT RAIN  55  54  94 N17G23    30.01S
$$
MNZ033>034-036-042>043-049>051-058-059-292300-
   Central Minnesota

CITY           SKY/WX    TMP DP  RH WIND       PRES   REMARKS
ST CLOUD       LGT RAIN  54  52  93 N17       29.98R
SAUK CENTRE    CLOUDY    52  48  87 N17G23    30.02R
PAYNESVILLE    LGT RAIN  51  50  97 NW9G22    30.01R
AITKIN         CLOUDY    54  46  76 N8G18     30.02R
PINE RIVER     CLOUDY    52  45  76 N18G24    30.08R
BRAINERD       CLOUDY    52  46  80 N14       30.04R
STAPLES        CLOUDY    52  45  76 N13       30.05S
LONG PRAIRIE   CLOUDY    52  46  82 N13G21    30.03S
LITTLE FALLS   CLOUDY    52  46  82 N12G18    30.02S
LITCHFIELD     DRIZZLE   57  57 100 N17       29.97R
BUFFALO        RAIN      61  58  88 N10G18    29.95R
MAPLE LAKE     LGT RAIN  58  57  95 NW15G22   29.97R
$$
MNZ037-044-045-052-053-292300-
   East Central Minnesota

CITY           SKY/WX    TMP DP  RH WIND       PRES   REMARKS
PRINCETON      LGT RAIN  57  55  94 N16       29.96S
MORA           LGT RAIN  52  50  93 N6        29.99R
CAMBRIDGE      LGT RAIN  63  54  72 NW13      29.92F
RUSH CITY      LGT RAIN  61  58  90 N13       29.94S
MOOSE LAKE     DRIZZLE   54  50  87 N10G16    29.98R
HINCKLEY       RAIN      55  55 100 N13G18    29.97R
CLOQUET        CLOUDY    54  50  87 NW13G21   29.99R
MCGREGOR       CLOUDY    54  48  82 NW9G18    30.02R
$$
MNZ071>073-080-081-089-090-097-098-292300-
   Southwest Minnesota

CITY           SKY/WX    TMP DP  RH WIND       PRES   REMARKS
MONTEVIDEO     DRIZZLE   52  52 100 N16G24    30.04R
GRANITE FALLS  DRIZZLE   52  51  93 NW15G22   30.03R
CANBY          CLOUDY    48  46  92 N17G26    30.07R
MARSHALL       CLOUDY    48  43  81 N25G33    30.01S
REDWOOD FALLS  LGT RAIN  57  55  93 N20G28    29.96R
OLIVIA         LGT RAIN  54  52  94 N17G26    29.97R
PIPESTONE      CLOUDY    50  46  87 N16G30    30.01S
WINDOM         CLOUDY    55  54  94 NW25G35   29.94S
WORTHINGTON    CLOUDY    54  48  82 N28       29.97R
JACKSON        LGT RAIN  59  55  88 N16G24    29.94S
TRACY          LGT RAIN  51  50  97 N20G31    30.00S
SLAYTON        DRIZZLE   50  50 100 N24G33    29.99S
$$
MNZ065>067-074>077-082>085-091>093-292300-
   South Central Minnesota

CITY           SKY/WX    TMP DP  RH WIND       PRES   REMARKS
MANKATO        CLOUDY    64  63  94 N15       29.90S
NEW ULM        LGT RAIN  64  63  94 NW9       29.92R
ST JAMES       LGT RAIN  64  63  94 NW13G21   29.93R
FAIRMONT       CLOUDY    64  59  82 N20       29.90R
GLENCOE        LGT RAIN  64  63  97 N14G21    29.92S
FARIBAULT      CLOUDY    66  64  94 N6        29.89S
OWATONNA       DRIZZLE   66  63  88 NE6       29.89S
WASECA         LGT RAIN  66  61  82 N8        29.89F
ALBERT LEA     CLOUDY    73  63  68 S3        29.87F
$$
MNZ078>079-086>088-094>096-292300-
   Southeast Minnesota

CITY           SKY/WX    TMP DP  RH WIND       PRES   REMARKS
ROCHESTER      CLOUDY    65  63  93 NE7       29.91S
RED WING       CLOUDY    68  64  88 CALM      29.87F
STANTON        CLOUDY    69  64  84 N7        29.88S
DODGE CENTER   CLOUDY    66  63  88 NE7       29.89S
WINONA         HVY RAIN  64  63  94 NW12      29.89R
AUSTIN         CLOUDY    68  64  88 CALM      29.88F
PRESTON        CLOUDY    70  62  77 N13G21    29.90R
$$
ABBREVIATIONS USED IN REMARKS
   TC - TEMPERATURES IN CELSIUS
  WCI - WIND CHILL INDEX
   HX - HEAT INDEX
  VSB - VISIBILITY
$$


USA.gov is the U.S. government's official web portal to all federal, state and local government web resources and services.